Location: *
(55.5817°S, 142.4781°W)
Time: 09:06:54
(UTC+00:00)

Cosmos 1697 Rocket - Pass Details

Date: 29 April 2025
Orbit: 831 x 843 km, 71.0° (Epoch: 18 May)

Event Time Altitude Azimuth Distance (km) Brightness Sun altitude
Exits shadow 13:47:52 29° 359° (N) 1,502 3.8 -26.0°
Maximum altitude 13:50:37 57° 64° (ENE) 998 3.2 -25.6°
Drops below altitude 10° 13:56:13 10° 141° (SE) 2,493 5.8 -24.9°
Sets 13:58:42 0° 144° (SE) 3,432 6.5 -24.5°
